Needles, CA

8:28 AM PDT on October 01, 2016 (GMT -0700)
Needles

Weather History for KEED - August, 2013

Change the Weather History Date:

Friday, August 16, 2013

  Actual Average Record
Temperature  
Mean Temperature 102 °F 95 °F  
Max Temperature 115 °F 107 °F 118 °F (2015)
Min Temperature 90 °F 83 °F 63 °F (1918)
Degree Days  
Heating Degree Days 0    
Cooling Degree Days 37    
Growing Degree Days 52 (Base 50)    
Moisture  
Dew Point 50 °F    
Average Humidity 17    
Maximum Humidity 26    
Minimum Humidity 12    
Precipitation  
Precipitation 0.00 in 0.01 in 2.03 in (1909)
Month to date precipitation 0.19  
Year to date precipitation 2.73  
Sea Level Pressure  
Sea Level Pressure 29.69 in    
Wind  
Wind Speed 4 mph (WSW)    
Max Wind Speed 13 mph    
Max Gust Speed 24 mph    
Visibility 10 miles    
Events      
T = Trace of Precipitation, MM = Missing Value Source: NWS Daily Summary

Daily Weather History Graph

Daily Weather History Graph

Search for Another Location

Airport or City:

Trip Planner

Search our weather history database for the weather conditions in past years. The results will help you decide how hot, cold, wet, or windy it might be!

Date:

Astronomy

Aug. 16, 2013 Rise Set
Actual Time 5:59 AM PDT 7:24 PM PDT
Civil Twilight 5:33 AM PDT 7:51 PM PDT
Nautical Twilight 5:01 AM PDT 8:23 PM PDT
Astronomical Twilight 4:27 AM PDT 8:56 PM PDT
Moon 3:43 PM PDT (8/16) 1:11 AM PDT (8/16)
Length of Visible Light 14h 18m
Length of Day
13h 25m
Waxing Gibbous, 76% of the Moon is Illuminated
Aug 16
Waxing Gibbous
Aug 20
Full
Aug 28
Last Quarter
Sep 5
New
Sep 12
First Quarter

Hourly Weather History & Observations

Time (PDT) Temp. Heat Index Dew Point Humidity Pressure Visibility Wind Dir Wind Speed Gust Speed Precip Events Conditions
12:56 AM 100.0 °F - 50.0 °F 18% 29.70 in 10.0 mi Calm Calm - N/A   Clear
1:56 AM 98.1 °F - 51.1 °F 20% 29.70 in 10.0 mi Calm Calm - N/A   Clear
2:56 AM 95.0 °F - 50.0 °F 22% 29.70 in 10.0 mi West 6.9 mph - N/A   Clear
3:56 AM 93.0 °F - 52.0 °F 25% 29.70 in 10.0 mi Variable 3.5 mph - N/A   Clear
4:56 AM 91.9 °F - 51.1 °F 25% 29.71 in 10.0 mi Calm Calm - N/A   Clear
5:56 AM 90.0 °F - 51.1 °F 26% 29.73 in 10.0 mi WNW 3.5 mph - N/A   Clear
6:56 AM 93.9 °F - 51.1 °F 23% 29.74 in 10.0 mi NNW 3.5 mph - N/A   Clear
7:56 AM 95.0 °F - 51.1 °F 22% 29.76 in 10.0 mi Calm Calm - N/A   Clear
8:56 AM 99.0 °F - 51.1 °F 20% 29.76 in 10.0 mi Calm Calm - N/A   Clear
9:56 AM 104.0 °F - 51.1 °F 17% 29.75 in 10.0 mi Calm Calm - N/A   Clear
10:56 AM 107.1 °F - 52.0 °F 16% 29.74 in 10.0 mi East 5.8 mph - N/A   Clear
11:56 AM 109.9 °F 108.6 °F 55.0 °F 16% 29.72 in 10.0 mi Variable 5.8 mph - N/A   Clear
12:56 PM 113.0 °F - 52.0 °F 13% 29.70 in 10.0 mi WSW 10.4 mph 20.7 mph N/A   Clear
1:56 PM 114.1 °F - 52.0 °F 13% 29.68 in 10.0 mi Calm Calm - N/A   Clear
2:56 PM 114.1 °F - 51.1 °F 13% 29.65 in 10.0 mi SSW 10.4 mph 16.1 mph N/A   Clear
3:56 PM 114.1 °F - 50.0 °F 12% 29.64 in 10.0 mi SSW 8.1 mph 24.2 mph N/A   Clear
4:56 PM 114.1 °F - 48.9 °F 12% 29.62 in 10.0 mi SSW 11.5 mph 17.3 mph N/A   Partly Cloudy
5:56 PM 113.0 °F - 48.9 °F 12% 29.62 in 10.0 mi Variable 5.8 mph - N/A   Clear
6:56 PM 111.0 °F - 48.0 °F 12% 29.63 in 10.0 mi West 9.2 mph - N/A   Clear
7:56 PM 109.0 °F - 48.0 °F 13% 29.65 in 10.0 mi West 6.9 mph - N/A   Clear
8:56 PM 106.0 °F - 48.0 °F 14% 29.67 in 10.0 mi WSW 6.9 mph - N/A   Clear
9:56 PM 102.9 °F - 48.0 °F 16% 29.68 in 10.0 mi WSW 8.1 mph - N/A   Clear
10:56 PM 102.9 °F - 48.9 °F 16% 29.68 in 10.0 mi WSW 10.4 mph - N/A   Clear
11:56 PM 102.0 °F - 46.0 °F 15% 29.68 in 10.0 mi West 12.7 mph - N/A   Clear